COSMOS 2251 DEB, 35901

Orbit data source: Space-Track

COSMOS 2251 DEB, 35901 is space debris in LEO originally from a launch on Wed, 16 Jun 1993 UTC launched from the Plesetsk Missile And Space Complex (PKMTR). The debris from Iridium 33, an American commercial communications satellite, has been tracked extensively since its accidental collision with the defunct Russian satellite Cosmos 2251 in 2009. This event, occurring at high speed in low Earth orbit (LEO), generated thousands of pieces of space debris, significantly increasing the risk of further collisions. The Iridium 33 debris cloud has impacted space traffic management and orbital debris mitigation strategies, making it a subject of ongoing study in space situational awareness.

Loading next visibility...
Identifier
35901, 1993-036AUQ
Orbit
LEO
Country
Flag of CISCIS
Related business
Manufacturer
Unknown
Mission
Spacecraft
Bus & Motor
Unknown
Mass
Unknown
Launch date (UTC)
1993-06-16 (33 years ago)
Launch vehicle
Unknown
Launch site
Plesetsk Missile And Space Complex (PKMTR)
Object type
Payload
Rocket body
Debris
Shape & HBR
Unknown shape, 0.1 m
Radar Cross Section
Small (<0.1 m²)

Expand to show TLE details & history
Last TLE update: 1 day ago

TLE from 1 day ago
0 COSMOS 2251 DEB
1 35901U 93036AUQ 25354.32050392  .00034936  00000-0  22779-2 0  9996
2 35901  74.0111   7.2587 0007581 340.2709  37.3861 15.07712377862418
Epoch: 2025-12-20T07:41Z
TLE epoch observation values (Epoch: 2025-12-20T07:41:31.538Z)
Latitude
16.99598°
Longitude
167.72511°
Altitude
541.091 km
Speed
7.596 km/s
True Right ascension
00h 49m 01s
True Declination
16° 53' 50"
Sunlit
Object was in daylight at epoch
Visualization orbit readout
Latitude
Unknown
Longitude
Unknown
Altitude
Unknown
Speed
Unknown
Apparent Right ascension
Unknown
Apparent Declination
Unknown
Sunlit
N/A
Visualization observer readout
Local Sidereal Time
11:11:59
Azimuth
Unknown
Elevation
Unknown
Doppler factor
Unknown
Orbital elements
Apogee altitude
545.985 km
Perigee altitude
535.495 km
Semi-major axis
6,918.877 km
Eccentricity
0.00076
Inclination
74.0111°
RAAN
7.2587°
Arg. of periapsis
340.2709°
True anomaly
37.43889°
Mean anomaly
37.3861°
Eccentric anomaly
37.41249°
Mean motion
3.77129 °/min
Orbital period
95.46 mins
BSTAR
0.0022779
Loading maneuver chart data...
Computing Atmospheric mass density...
Loading historical data...
Loading historical data...
Loading historical data...
Loading historical data...
Loading historical data...
Loading historical data...
Loading historical data...

Documentation

Showing up to 5 results
|